Home   Weather   Pago Pago   Past weeks

Flag for American Samoa Past Weather in Pago Pago, American Samoa — Yesterday and Last 2 Weeks

Now
86 °F

Broken clouds.


Feels Like: 100 °F
Forecast: 81 / 87 °F
Wind: 12 mph from East

Location: Pago Pago / Int. Airp.

Current Time: May 27, 2018 at 10:40:38 am

Latest Report: May 27, 2018 at 9:50 am


Visibility: 12 mi

Pressure: 29.83 "Hg

Humidity: 80%

Dew Point: 79 °F

Location of Pago PagoLocation

Past Weather in Pago Pago — Graph

°F

Pago Pago Temperature Yesterday

Maximum temperature yesterday: 87 °F (at 12:51 pm)
Minimum temperature yesterday: 77 °F (at 5:50 am)
Average temperature yesterday: 82 °F

High & Low Weather Summary for the Past Weeks

 TemperatureHumidityPressure
High89 °F (May 22, 12:50 pm)100% (May 26, 3:25 am)29.96 "Hg (May 26, 3:25 am)
Low73 °F (May 17, 5:50 am)61% (May 12, 2:50 pm)29.78 "Hg (May 27, 3:50 am)
Average82 °F84%29.87 "Hg
* Reported May 12 8:50 am — May 27 8:50 am, Pago Pago. Weather by CustomWeather, © 2018

Note: Actual official high and low records may vary slightly from our data, if they occured in-between our weather recording intervals... More about our weather records

Advertising

Pago Pago Weather History for the Previous 24 Hours

Scroll right to see more
 ConditionsComfort  
Time TempWeatherWind HumidityBarometerVisibility
8:50 am
Sun, May 27
86 °FBroken clouds.10 mph82%29.83 "Hg12 mi
7:50 am82 °FBroken clouds.5 mph89%29.82 "Hg12 mi
6:50 am82 °FPartly sunny.7 mph88%29.80 "Hg11 mi
5:50 am82 °FPartly cloudy.8 mph90%29.78 "Hg10 mi
4:50 am82 °FPartly cloudy.14 mph89%29.78 "Hg10 mi
3:50 am82 °FPartly cloudy.12 mph90%29.78 "Hg10 mi
2:50 am82 °FPartly cloudy.14 mph89%29.80 "Hg10 mi
1:50 am82 °FPartly cloudy.13 mph90%29.82 "Hg10 mi
12:50 am82 °FPartly cloudy.12 mph91%29.84 "Hg10 mi
11:50 pm
Sat, May 26
82 °FPartly cloudy.16 mph92%29.85 "Hg10 mi
10:50 pm82 °FPartly cloudy.16 mph89%29.86 "Hg10 mi
9:50 pm82 °FPartly cloudy.14 mph91%29.87 "Hg10 mi
8:51 pm82 °FSprinkles. Overcast.15 mph92%29.86 "Hg8 mi
7:50 pm81 °FLots of rain. Overcast.21 mph95%29.87 "Hg6 mi
6:50 pm81 °FRain showers. Mostly cloudy.18 mph94%29.85 "Hg6 mi
6:05 pm82 °FLots of rain. Mostly cloudy.23 mph94%29.84 "Hg3 mi
5:52 pm82 °FBroken clouds.9 mph92%29.83 "Hg12 mi
4:50 pm82 °FBroken clouds.15 mph94%29.82 "Hg12 mi
3:51 pm86 °FBroken clouds.12 mph85%29.80 "Hg12 mi
2:52 pm86 °FBroken clouds.12 mph85%29.80 "Hg12 mi
1:50 pm87 °FScattered clouds.12 mph83%29.82 "Hg12 mi
12:51 pm87 °FScattered clouds.12 mph85%29.83 "Hg12 mi
11:54 am86 °FScattered clouds.13 mph83%29.86 "Hg12 mi
10:50 am86 °FScattered clouds.14 mph84%29.90 "Hg12 mi
Weather by CustomWeather, © 2018

See weather overview